Find Starlink 32278

NORAD ID: 60356 Int'l Des: 2024-138 Owner: SPXS Country: US Constellation: starlink operational
LEOCIRCULAR

当前视图

正在加载3D地球...

About Starlink 32278

Starlink 32278 (NORAD 60356) is a starlink constellation satellite (v2 mini) launched Aug 4, 2024 by SPXS of US. It operates in LEO, CIRCULAR orbit with a mass of 730.00 kg.

关于 Starlink 32278

正在加载描述...

即将过境

Passes for default location (London). Set your location on the main map for personalized predictions.

高度历史

Loading altitude history...

两行轨道根数

1 60356U 24138B 26176.13800382 .00002759 00000-0 10528-3 0 9997
2 60356 53.1598 170.8502 0001098 77.6263 282.4860 15.30193131107077
Epoch: Jun 25, 2026 • Age: 6 hours

当前状态

高度 487.6 km
速度 7.62 km/s
星下点 -36.93°S, 81.51°E
发射日期 Aug 4, 2024
运行时间 1.8 years
类型 internet

技术详情

分类 Payload
质量 730.00 kg
干质量 700.00 kg
总质量 730.00 kg
长度 0.30 m
直径 4.10 m
跨度 29.00 m
形状 Box + pan
制造商 SPXS
平台类型 Starlink V2M
阶段状态 In Orbit
所有者/国家 SPXS/US

Most Searched